DELTA 1 DEB, 18463

Orbit data source: Space-Track

DELTA 1 DEB, 18463 is space debris in SSO originally from a launch on Thu, 29 Jul 1976 UTC launched from the Air Force Western Test Range (AFWTR). Debris objects in space refer to the collection of defunct objects orbiting the Earth. Examples of debris include non-operational satellites, rocket bodies, and fragments generated from explosions, collisions, or faulty payload assembly.

Loading next visibility...
Identifier
18463, 1976-077FA
Orbit
SSO
Country
Flag of USUS
Related business
Manufacturer
Unknown
Mission
Spacecraft
Bus & Motor
Unknown
Mass
Unknown
Launch date (UTC)
1976-07-29 (49 years ago)
Launch vehicle
Unknown
Launch site
Air Force Western Test Range (AFWTR)
Object type
Payload
Rocket body
Debris
Shape & HBR
Unknown shape, 0.1 m
Radar Cross Section
Small (<0.1 m²)

Expand to show TLE details & history
Last TLE update: 2 days ago

TLE from 2 days ago
0 DELTA 1 DEB
1 18463U 76077FA  25348.38264970  .00000033  00000-0  71699-3 0  9991
2 18463 102.5640 318.4416 0093606 233.1809 285.2087 12.23612601205798
Epoch: 2025-12-14T09:11Z
TLE epoch observation values (Epoch: 2025-12-14T09:11:00.934Z)
Latitude
22.09289°
Longitude
-77.44361°
Altitude
1,560.282 km
Speed
7.097 km/s
True Right ascension
09h 34m 25s
True Declination
21° 59' 07"
Sunlit
Object was in daylight at epoch
Visualization orbit readout
Latitude
Unknown
Longitude
Unknown
Altitude
Unknown
Speed
Unknown
Apparent Right ascension
Unknown
Apparent Declination
Unknown
Sunlit
N/A
Visualization observer readout
Local Sidereal Time
22:31:35
Azimuth
Unknown
Elevation
Unknown
Doppler factor
Unknown
Orbital elements
Apogee altitude
1,648.916 km
Perigee altitude
1,500.034 km
Semi-major axis
7,952.612 km
Eccentricity
0.00936
Inclination
102.564°
RAAN
318.4416°
Arg. of periapsis
233.1809°
True anomaly
284.17049°
Mean anomaly
285.2087°
Eccentric anomaly
284.68991°
Mean motion
3.0604 °/min
Orbital period
117.63 mins
BSTAR
0.00071699
Loading maneuver chart data...
Computing Atmospheric mass density...
Loading historical data...
Loading historical data...
Loading historical data...
Loading historical data...
Loading historical data...
Loading historical data...
Loading historical data...

Documentation

Showing up to 5 results
|